Regional Weather Roundup
Issued by NWS

Home | Current Version | Previous Version | Graphics & Text | Print | Product List | Glossary On
Versions: 1 2 3 4 5 6 7 8 9 10 11 12 13 14 15 16 17 18 19 20 21 22 23 24 25 26 27 28 29 30 31 32 33 34 35 36 37 38 39 40 41 42 43 44 45 46 47 48 49 50
000
ASUS43 KMKX 202111
RWRWI

WISCONSIN REGIONAL WEATHER ROUNDUP
NATIONAL WEATHER SERVICE MILWAUKEE/SULLIVAN WI
300 PM CST THU NOV 20 2014

NOTE: "FAIR" INDICATES FEW OR NO CLOUDS BELOW 12,000 FEET WITH NO
SIGNIFICANT WEATHER AND/OR OBSTRUCTIONS TO VISIBILITY.

WIZ001-002-006>008-014>016-023>028-202200-
NORTHWEST WISCONSIN

CITY           SKY/WX    TMP DP  RH WIND       PRES   REMARKS
SUPERIOR ARPT  SUNNY     17   1  49 W12       30.09R WCI   4
ASHLAND        CLOUDY    13   4  67 W7        30.06R WCI   3
HAYWARD        MOSUNNY   16  -1  47 VRB5      30.04R WCI   9
SIREN          SUNNY     16  -1  48 NW12G17   30.10R WCI   2
CUMBERLAND     SUNNY     12   0  57 W16       30.07R WCI  -4
RICE LAKE      SUNNY     15   0  50 W8G16     30.10R WCI   4
CHETEK         SUNNY     14   0  52 W9        30.09R WCI   2
LADYSMITH      MOSUNNY   15   2  56 W15       30.05R WCI   0
EAU CLAIRE     SUNNY     15  -2  46 NW14G22   30.10R WCI   0
MENOMONIE      SUNNY     17  -1  45 W16       30.11R WCI   2
NEW RICHMOND   SUNNY     16   0  50 W12       30.12R WCI   3
OSCEOLA        SUNNY     17   1  50 W12       30.16R WCI   4
$$

WIZ003>005-009-010-017-018-202200-
NORTH CENTRAL WISCONSIN

CITY           SKY/WX    TMP DP  RH WIND       PRES   REMARKS
MANITOWISH WTR MOSUNNY    8  -3  62 W15G21    29.96R WCI -10
ARBOR VITAE    MOSUNNY   11   0  59 NW13G21   29.96R WCI  -4
WOODRUFF       MOSUNNY   11   0  59 NW13G21   29.96R WCI  -4
RHINELANDER    CLOUDY     8  -2  63 W16G23    29.96R WCI -10
EAGLE RIVER    PTSUNNY   10  -3  56 W13       29.93R WCI  -6
LAND O LAKES   PTSUNNY   10   0  63 NW8       29.93R WCI  -1
PHILLIPS       CLOUDY    10  -1  63 NW7       29.99R WCI  -2
TOMAHAWK       CLOUDY    10  -1  60 W14       29.99R WCI  -6
MEDFORD        PTSUNNY   12   1  59 NW13G21   30.00R WCI  -2
MERRILL        CLOUDY    12  -1  55 NW13G22   29.99R WCI  -3
$$

WIZ029-030-035-036-043>047-202200-
CENTRAL WISCONSIN

CITY           SKY/WX    TMP DP  RH WIND       PRES   REMARKS
WAUSAU         CLOUDY    13   1  59 W18G25    30.00R WCI  -4
MOSINEE        CLOUDY    12   3  67 W13G20    30.01R WCI  -3
MARSHFIELD     MOSUNNY   15   1  53 W15       30.03R WCI   0
STEVENS POINT  CLOUDY    13  -1  53 NW14G21   30.03R WCI  -2
WAUPACA        MOSUNNY   18   1  47 W17G23    30.04R WCI   3
WAUTOMA        SUNNY     19   1  45 NW13      30.05R WCI   6
WISC RAPIDS    MOSUNNY   16  -1  47 NW17G24   30.06R WCI   0
CAMP DOUGLAS   SUNNY     19   0  43 W16G28    30.07R WCI   5
$$

WIZ011>013-019>022-031-037>040-048>050-202200-
NORTHEAST WISCONSIN

CITY           SKY/WX    TMP DP  RH WIND       PRES   REMARKS
ANTIGO         CLOUDY    10   0  66 W15G22    29.97R WCI  -7
SHAWANO        PTSUNNY   17   3  55 W13G18    30.02R WCI   3
OCONTO         CLOUDY    18   2  48 W15       30.00R WCI   4
STURGEON BAY   CLOUDY    18   1  49 W15G21    29.97R WCI   3
GREEN BAY      CLOUDY    17   4  56 W16G24    30.02R WCI   2
MANITOWOC      CLOUDY    19   5  54 NW23      30.01R WCI   2
APPLETON       PTSUNNY   18   1  49 NW21G26   30.01R WCI   1
CLINTONVILLE   CLOUDY    18   1  49 NW12G20   30.02R WCI   5
OSHKOSH        SUNNY     19   3  49 W14G21    30.03R WCI   6
$$

WIZ032>034-041-042-053>061-202200-
SOUTHWEST WISCONSIN

CITY           SKY/WX    TMP DP  RH WIND       PRES   REMARKS
LA CROSSE      SUNNY     22   2  42 W15G22    30.13R WCI   9
SPARTA         SUNNY     20   1  43 W9        30.11R WCI   9
VIROQUA        SUNNY     19   1  45 W13G18    30.08R WCI   5
BOSCOBEL       SUNNY     23   2  40 NW15G21   30.14R WCI  10
PRAIRIE DU CHI SUNNY     22   5  49 W13G20    30.16R WCI  10
PLATTEVILLE    SUNNY     21   7  54 W16G24    30.13R WCI   7
$$

WIZ056-057-062-063-064-067-068-202200-
SOUTH CENTRAL WISCONSIN

CITY           SKY/WX    TMP DP  RH WIND       PRES   REMARKS
REEDSBURG      SUNNY     21   0  40 W13       30.07R WCI   8
BARABOO/DELLS  SUNNY     20  -1  39 W15G24    30.06R WCI   6
LONE ROCK      SUNNY     26  -1  31 NW18G28   30.10R WCI  13
MINERAL POINT  SUNNY     23   3  42 W16G23    30.08R WCI  10
MADISON        MOSUNNY   23  -2  33 NW14G21   30.06R WCI  11
MIDDLETON      SUNNY     25  -3  28 NW13G22   30.06R WCI  14
WATERTOWN      SUNNY     22   1  40 W15G23    30.05R WCI   9
MONROE         SUNNY     23   9  54 W21G29    30.07R WCI   8
JANESVILLE     MOSUNNY   25   1  36 W20G25    30.08R WCI  11
$$

WIZ051-052-058>065-066-070>072-202200-
SOUTHEAST WISCONSIN

CITY           SKY/WX    TMP DP  RH WIND       PRES   REMARKS
MILWAUKEE      MOSUNNY   24   0  35 W15G23    30.04R WCI  11
WAUKESHA       MOSUNNY   21   3  45 W20G28    30.04R WCI   6
MILWAUKEE/TIMM SUNNY     23   1  39 W14G28    30.04R WCI  11
RACINE         SUNNY     24   1  36 NW17G28   30.06R WCI  11
BURLINGTON     SUNNY     23   0  37 W14G21    30.05R WCI  10
KENOSHA        SUNNY     25   4  40 W21G28    30.05R WCI  11
FOND DU LAC    SUNNY     20   2  45 NW20      30.02R WCI   4
SHEBOYGAN      MOSUNNY   19   3  49 W18G26    30.01R WCI   4
WEST BEND      SUNNY     21   1  42 W15G24    30.02R WCI   8
JUNEAU         SUNNY     20   1  43 W13G18    30.04R WCI   8
$$

LSZ147-162-202200-
LAKE SUPERIOR

STATION/POSITION TIME  TEMP    WIND        PRES    WAVE
                       AIR SEA DIR/SP/G            HT/PER
                 (UTC) (F)     (DEG/KT/KT) (MB)    (FT/S)
DEVILS ISLAND    2100   15     310/ 20/ 24 1018.6R
PORT WING        2040   17     280/ 10/ 18 1018.3R
SAXON HARBOR     2000   14     290/ 11/ 15 1016.9R
$$

LMZ867-665-643>646-202200-
LAKE MICHIGAN

STATION/POSITION TIME  TEMP    WIND        PRES    WAVE
                       AIR SEA DIR/SP/G            HT/PER
                 (UTC) (F)     (DEG/KT/KT) (MB)    (FT/S)
CHAMBERS ISLAND  2000   19     250/  7/ 15 1013.9R
N MID LAKE BUOY  2050   22 42  280/ 17/ 23 1014.2R   4/ 5
NORTHPORT PIER   2101   20     300/  9/ 22 1014.6R
SISTER BAY       2013          330/ 18/ 24   N/A
ALGOMA LAKESHORE 2043          300/ 12/ 18   N/A
KEWAUNEE LAKESHO 2000   17     290/ 14/ 20 1013.9R
SHEBOYGAN LAKESH 2100   20 34  280/ 15/ 18 1018.0R
PORT WASHINGTON  2000   22     290/ 13/ 20 1017.3R
ATWATER BUOY     2000   24     270/ 17/ 21 1017.1S
MILWAUKEE LAKESH 2000   23     280/ 16/ 21   N/A
S MID LAKE BUOY  2050   26 43  270/ 19/ 29 1017.8R   6/ 6
KENOSHA   LAKESH 2100   25     280/ 12/ 17 1017.6R
$$

TC  - TEMPERATURE IN CELSIUS
VSB - VISIBILITY IN STATUTE MILES
WCI - WIND CHILL INDEX
HX  - HEAT INDEX



USA.gov is the U.S. government's official web portal to all federal, state and local government web resources and services.